When you browse on this site, cookies collect data to enhance your experience and personalize the content and advertising you see.
Visit our Privacy Policy to learn more. By continuing to use the site, you agree to this use of cookies and data.
  • In Hungary
  • List of Countries
  • For 7 days
  • Water Temperature
  • Satellite Maps
  • Weather Map
  • News
  • Weather Widgets
  • user-avatar
    Login

    Hourly Weather Maloe Rashino

    Today, 20 January, Sunday

    Time Temperature Precipitation Wind Pressure Humidity
    00:00 -13°C° 0 mm 3 mps 743 mmHg 95%
    01:00 -12°C° 0 mm 3 mps 743 mmHg 94%
    02:00 -10°C° 0 mm 3 mps 743 mmHg 93%
    03:00 -9°C° 0 mm 3 mps 743 mmHg 92%
    04:00 -9°C° 0 mm 4 mps 742 mmHg 91%
    05:00 -9°C° 0 mm 4 mps 742 mmHg 89%
    06:00 -8°C° 0.2 mm 4 mps 741 mmHg 90%
    07:00 -8°C° 0.2 mm 5 mps 740 mmHg 90%
    08:00 -8°C° 0.2 mm 5 mps 740 mmHg 90%
    09:00 -7°C° 0.2 mm 5 mps 739 mmHg 90%
    10:00 -8°C° 0.2 mm 6 mps 739 mmHg 89%
    11:00 -6°C° 0.2 mm 6 mps 739 mmHg 89%
    12:00 -6°C° 0.2 mm 5 mps 738 mmHg 86%
    13:00 -6°C° 0.2 mm 5 mps 738 mmHg 83%
    14:00 -6°C° 0.2 mm 5 mps 737 mmHg 81%
    15:00 -7°C° 0 mm 5 mps 737 mmHg 82%
    16:00 -8°C° 0 mm 5 mps 737 mmHg 83%
    17:00 -10°C° 0 mm 5 mps 737 mmHg 85%
    18:00 -8°C° 0 mm 5 mps 737 mmHg 86%
    19:00 -8°C° 0 mm 5 mps 737 mmHg 87%
    20:00 -8°C° 0 mm 5 mps 738 mmHg 88%
    21:00 -10°C° 0.1 mm 5 mps 738 mmHg 87%
    22:00 -10°C° 0.1 mm 6 mps 739 mmHg 86%
    23:00 -10°C° 0.1 mm 6 mps 739 mmHg 85%

    Tomorrow, 21 January, Monday

    Time Temperature Precipitation Wind Pressure Humidity
    00:00 -11°C° 0 mm 5 mps 740 mmHg 86%
    01:00 -12°C° 0 mm 5 mps 740 mmHg 87%
    02:00 -13°C° 0 mm 5 mps 741 mmHg 88%
    03:00 -15°C° 0 mm 4 mps 741 mmHg 90%
    04:00 -16°C° 0 mm 3 mps 741 mmHg 92%
    05:00 -17°C° 0 mm 3 mps 741 mmHg 94%
    06:00 -18°C° 0 mm 3 mps 742 mmHg 95%
    07:00 -19°C° 0 mm 3 mps 742 mmHg 96%
    08:00 -19°C° 0 mm 2 mps 742 mmHg 97%
    09:00 -18°C° 0 mm 2 mps 743 mmHg 96%
    10:00 -17°C° 0 mm 2 mps 743 mmHg 95%
    11:00 -17°C° 0 mm 2 mps 743 mmHg 94%
    12:00 -17°C° 0 mm 2 mps 743 mmHg 94%
    13:00 -17°C° 0 mm 2 mps 744 mmHg 94%
    14:00 -17°C° 0 mm 2 mps 744 mmHg 94%
    15:00 -18°C° 0 mm 2 mps 744 mmHg 94%
    16:00 -18°C° 0 mm 2 mps 744 mmHg 95%
    17:00 -21°C° 0 mm 3 mps 745 mmHg 96%
    18:00 -22°C° 0 mm 3 mps 745 mmHg 96%
    19:00 -20°C° 0 mm 2 mps 745 mmHg 96%
    20:00 -21°C° 0 mm 2 mps 746 mmHg 97%
    21:00 -21°C° 0 mm 2 mps 746 mmHg 97%
    22:00 -23°C° 0 mm 2 mps 746 mmHg 98%
    23:00 -24°C° 0 mm 2 mps 746 mmHg 98%

    Day after tomorrow, 22 January, Tuesday

    Time Temperature Precipitation Wind Pressure Humidity
    00:00 -24°C° 0 mm 2 mps 747 mmHg 98%
    01:00 -25°C° 0 mm 2 mps 747 mmHg 98%
    02:00 -25°C° 0 mm 2 mps 747 mmHg 98%
    03:00 -25°C° 0 mm 2 mps 747 mmHg 98%
    04:00 -25°C° 0 mm 2 mps 747 mmHg 98%
    05:00 -25°C° 0 mm 2 mps 748 mmHg 98%
    06:00 -25°C° 0 mm 2 mps 748 mmHg 98%
    07:00 -25°C° 0 mm 2 mps 748 mmHg 98%
    08:00 -25°C° 0 mm 2 mps 748 mmHg 98%
    09:00 -23°C° 0 mm 2 mps 749 mmHg 98%
    10:00 -21°C° 0 mm 2 mps 749 mmHg 97%
    11:00 -20°C° 0 mm 2 mps 749 mmHg 96%
    12:00 -20°C° 0 mm 2 mps 749 mmHg 96%
    13:00 -19°C° 0 mm 2 mps 749 mmHg 96%
    14:00 -19°C° 0 mm 2 mps 749 mmHg 96%
    15:00 -20°C° 0 mm 2 mps 749 mmHg 97%
    16:00 -21°C° 0 mm 2 mps 749 mmHg 98%
    17:00 -23°C° 0 mm 2 mps 749 mmHg 99%
    18:00 -23°C° 0 mm 2 mps 749 mmHg 99%
    19:00 -23°C° 0 mm 2 mps 750 mmHg 99%
    20:00 -23°C° 0 mm 2 mps 750 mmHg 99%
    21:00 -23°C° 0 mm 2 mps 750 mmHg 99%
    22:00 -23°C° 0 mm 2 mps 750 mmHg 99%
    23:00 -24°C° 0 mm 2 mps 750 mmHg 99%

    23 January, Wednesday

    Time Temperature Precipitation Wind Pressure Humidity
    00:00 -24°C° 0 mm 2 mps 750 mmHg 99%
    01:00 -24°C° 0 mm 2 mps 750 mmHg 99%
    02:00 -24°C° 0 mm 2 mps 750 mmHg 99%
    03:00 -24°C° 0 mm 2 mps 750 mmHg 99%
    04:00 -24°C° 0 mm 2 mps 750 mmHg 99%
    05:00 -24°C° 0 mm 2 mps 750 mmHg 99%
    06:00 -23°C° 0 mm 2 mps 750 mmHg 98%
    07:00 -23°C° 0 mm 2 mps 750 mmHg 98%
    08:00 -23°C° 0 mm 3 mps 750 mmHg 97%
    09:00 -22°C° 0 mm 3 mps 750 mmHg 96%
    10:00 -21°C° 0 mm 3 mps 750 mmHg 95%
    11:00 -18°C° 0 mm 3 mps 750 mmHg 94%
    12:00 -17°C° 0 mm 3 mps 749 mmHg 94%
    13:00 -16°C° 0 mm 3 mps 749 mmHg 93%
    14:00 -15°C° 0 mm 3 mps 749 mmHg 93%
    15:00 -14°C° 0 mm 3 mps 749 mmHg 93%
    16:00 -14°C° 0 mm 4 mps 748 mmHg 93%
    17:00 -12°C° 0 mm 4 mps 748 mmHg 93%
    18:00 -12°C° 0 mm 4 mps 748 mmHg 93%
    19:00 -11°C° 0 mm 4 mps 749 mmHg 93%
    20:00 -11°C° 0 mm 4 mps 749 mmHg 92%
    21:00 -11°C° 0 mm 4 mps 749 mmHg 92%
    22:00 -12°C° 0 mm 4 mps 749 mmHg 92%
    23:00 -12°C° 0 mm 4 mps 749 mmHg 93%

    24 January, Thursday

    Time Temperature Precipitation Wind Pressure Humidity
    00:00 -13°C° 0 mm 3 mps 749 mmHg 94%
    01:00 -15°C° 0 mm 3 mps 749 mmHg 95%
    02:00 -16°C° 0 mm 3 mps 750 mmHg 96%
    03:00 -16°C° 0.1 mm 3 mps 750 mmHg 96%
    04:00 -16°C° 0.1 mm 3 mps 750 mmHg 96%
    05:00 -15°C° 0.1 mm 2 mps 750 mmHg 96%
    06:00 -15°C° 0.1 mm 2 mps 751 mmHg 97%
    07:00 -13°C° 0.1 mm 1 mps 751 mmHg 97%
    08:00 -13°C° 0.1 mm 1 mps 751 mmHg 97%
    09:00 -13°C° 0 mm 1 mps 752 mmHg 96%
    10:00 -12°C° 0 mm 1 mps 752 mmHg 95%
    11:00 -14°C° 0 mm 2 mps 752 mmHg 95%
    12:00 -14°C° 0 mm 2 mps 753 mmHg 94%
    13:00 -15°C° 0 mm 2 mps 753 mmHg 93%
    14:00 -16°C° 0 mm 2 mps 753 mmHg 92%
    15:00 -17°C° 0 mm 2 mps 753 mmHg 92%
    16:00 -19°C° 0 mm 2 mps 754 mmHg 91%
    17:00 -20°C° 0 mm 2 mps 754 mmHg 91%
    18:00 -21°C° 0 mm 2 mps 754 mmHg 92%
    19:00 -21°C° 0 mm 2 mps 754 mmHg 93%
    20:00 -23°C° 0 mm 2 mps 754 mmHg 94%
    21:00 -23°C° 0 mm 2 mps 755 mmHg 94%
    22:00 -23°C° 0 mm 2 mps 755 mmHg 95%
    23:00 -23°C° 0 mm 2 mps 755 mmHg 95%

    25 January, Friday

    Time Temperature Precipitation Wind Pressure Humidity
    00:00 -23°C° 0 mm 2 mps 755 mmHg 95%
    01:00 -24°C° 0 mm 2 mps 755 mmHg 95%
    02:00 -24°C° 0 mm 2 mps 755 mmHg 95%
    03:00 -24°C° 0 mm 2 mps 755 mmHg 96%
    04:00 -24°C° 0 mm 2 mps 755 mmHg 96%
    05:00 -24°C° 0 mm 2 mps 755 mmHg 97%
    06:00 -24°C° 0 mm 2 mps 755 mmHg 96%
    07:00 -25°C° 0 mm 3 mps 755 mmHg 96%
    08:00 -25°C° 0 mm 3 mps 756 mmHg 95%
    09:00 -24°C° 0 mm 3 mps 756 mmHg 92%
    10:00 -23°C° 0 mm 3 mps 756 mmHg 90%
    11:00 -22°C° 0 mm 3 mps 756 mmHg 87%
    12:00 -22°C° 0 mm 3 mps 755 mmHg 86%
    13:00 -22°C° 0 mm 3 mps 755 mmHg 86%
    14:00 -21°C° 0 mm 3 mps 755 mmHg 86%
    15:00 -22°C° 0 mm 3 mps 755 mmHg 87%
    16:00 -23°C° 0 mm 3 mps 755 mmHg 89%
    17:00 -24°C° 0 mm 3 mps 755 mmHg 90%
    18:00 -24°C° 0 mm 3 mps 754 mmHg 90%
    19:00 -24°C° 0 mm 3 mps 754 mmHg 90%
    20:00 -24°C° 0 mm 3 mps 754 mmHg 90%
    21:00 -24°C° 0 mm 3 mps 754 mmHg 89%
    22:00 -23°C° 0 mm 3 mps 753 mmHg 87%
    23:00 -24°C° 0 mm 4 mps 753 mmHg 86%
    Show more